Terminal Aerodrome Forecast
Issued by NWS

Home | Current Version | Previous Version | Text Only | Print | Product List | Glossary On
Versions: 1 2 3 4 5 6 7 8 9 10 11 12 13 14 15 16 17 18 19 20 21
000
FTUS41 KBTV 261001 AAC
TAFMSS
TAF AMD
KMSS 261001Z 2610/2706 00000KT P6SM SCT002
      TEMPO 2610/2612 2SM BR BKN002
     FM261300 VRB03KT P6SM SCT250
     FM261600 23005KT P6SM FEW050 SCT200
     FM262300 VRB03KT P6SM BKN200=

USA.gov is the U.S. government's official web portal to all federal, state and local government web resources and services.